TimePDT,TemperatureF,Dew PointF,Humidity,Sea Level PressureIn,VisibilityMPH,Wind Direction,Wind SpeedMPH,Gust SpeedMPH,PrecipitationIn,Events,Conditions,WindDirDegrees,DateUTC
12:56 AM,73.0,19.0,13,29.58,10.0,West,12.7,-,N/A,,Clear,260,2014-03-26 07:56:00
1:56 AM,73.0,28.9,20,29.59,10.0,WSW,16.1,-,N/A,,Clear,250,2014-03-26 08:56:00
2:56 AM,72.0,28.9,20,29.57,10.0,WSW,12.7,-,N/A,,Clear,250,2014-03-26 09:56:00
3:56 AM,70.0,30.0,23,29.58,10.0,NW,9.2,-,N/A,,Clear,320,2014-03-26 10:56:00
4:56 AM,70.0,28.0,21,29.58,10.0,WSW,8.1,-,N/A,,Clear,250,2014-03-26 11:56:00
5:56 AM,68.0,30.0,24,29.60,10.0,West,12.7,-,N/A,,Clear,270,2014-03-26 12:56:00
6:56 AM,66.0,30.9,27,29.63,10.0,West,13.8,-,N/A,,Clear,270,2014-03-26 13:56:00
7:56 AM,66.0,37.0,34,29.67,10.0,West,12.7,-,N/A,,Clear,280,2014-03-26 14:56:00
8:56 AM,69.1,37.0,31,29.68,10.0,West,9.2,-,N/A,,Clear,270,2014-03-26 15:56:00
9:56 AM,73.0,30.9,21,29.68,10.0,West,20.7,26.5,N/A,,Clear,280,2014-03-26 16:56:00
10:56 AM,73.9,30.0,20,29.68,10.0,WSW,8.1,23.0,N/A,,Clear,250,2014-03-26 17:56:00
11:56 AM,75.0,32.0,21,29.67,10.0,SSW,11.5,-,N/A,,Mostly Cloudy,210,2014-03-26 18:56:00
12:56 PM,78.1,27.0,15,29.65,10.0,WSW,16.1,24.2,N/A,,Scattered Clouds,240,2014-03-26 19:56:00
1:56 PM,78.1,26.1,15,29.62,10.0,WSW,19.6,36.8,N/A,,Scattered Clouds,250,2014-03-26 20:56:00
2:56 PM,80.1,21.9,12,29.61,10.0,West,25.3,42.6,N/A,,Partly Cloudy,270,2014-03-26 21:56:00
3:56 PM,79.0,24.1,13,29.60,10.0,West,25.3,38.0,N/A,,Clear,260,2014-03-26 22:56:00
4:56 PM,77.0,27.0,16,29.60,10.0,WNW,21.9,27.6,N/A,,Partly Cloudy,290,2014-03-26 23:56:00
5:56 PM,75.9,24.1,15,29.61,10.0,West,19.6,29.9,N/A,,Clear,280,2014-03-27 00:56:00
6:56 PM,73.0,23.0,15,29.64,10.0,WNW,15.0,19.6,N/A,,Clear,300,2014-03-27 01:56:00
7:56 PM,70.0,27.0,20,29.66,10.0,WNW,20.7,-,N/A,,Clear,300,2014-03-27 02:56:00
8:56 PM,68.0,32.0,26,29.70,10.0,West,18.4,26.5,N/A,,Clear,260,2014-03-27 03:56:00
9:56 PM,66.9,30.9,26,29.71,10.0,West,17.3,-,N/A,,Clear,280,2014-03-27 04:56:00
10:56 PM,66.0,32.0,28,29.73,10.0,WNW,13.8,-,N/A,,Clear,290,2014-03-27 05:56:00
11:56 PM,64.0,34.0,33,29.73,10.0,West,25.3,-,N/A,,Clear,270,2014-03-27 06:56:00